Location: Ferma
(41.9500°N, 44.5167°E)
Time: 04:19:45
(UTC+00:00)

NOSS 2-3 (D) - Pass Details

Date: 30 May 2022
Orbit: 536 x 1674 km, 63.3° (Epoch: 02 June)

Event Time Altitude Azimuth Distance (km) Brightness Sun altitude
Rises 17:42:02 0° 331° (NNW) 3,320 8.9 -11.6°
Reaches altitude 10° 17:44:46 10° 347° (NNW) 2,555 7.7 -11.9°
Maximum altitude 17:49:33 24° 39° (NE) 2,030 6.2 -12.6°
Drops below altitude 10° 17:55:24 10° 90° (E) 3,199 6.8 -13.3°
Enters shadow 17:56:49 - 96° (E) 3,613 7.0 -13.5°
